| time (UTC) | temp C | wind direction | speed KPH | gust KPH | rain 1hr cm | rain 24hr cm | rain mn cm | humidity % | barometer mb |
| 20260502130318 | 13 | 338 | 0.0 | 0.0 | 0.00 | 0.99 | 0.00 | 100 | 1019.1 |
| 20260502122818 | 13 | 325 | 0.0 | 0.0 | 0.00 | 0.99 | 0.00 | 100 | 1018.5 |
| 20260502122548 | 13 | 9 | 0.0 | 0.0 | 0.00 | 0.99 | 0.00 | 100 | 1018.5 |
| 20260502121817 | 13 | 316 | 0.0 | 0.0 | 0.00 | 0.99 | 0.00 | 100 | 1018.4 |
| 20260502121548 | 13 | 357 | 0.0 | 0.0 | 0.00 | 0.99 | 0.00 | 100 | 1018.3 |
| 20260502120815 | 13 | 330 | 0.0 | 0.0 | 0.00 | 0.99 | 0.00 | 100 | 1018.2 |
| 20260502120315 | 13 | 325 | 0.0 | 0.0 | 0.00 | 0.99 | 0.00 | 100 | 1018.2 |
| 20260502115811 | 13 | 330 | 0.0 | 0.0 | 0.00 | 0.99 | 0.00 | 100 | 1018.2 |
| 20260502115310 | 13 | 9 | 0.0 | 0.0 | 0.00 | 0.99 | 0.00 | 100 | 1018.0 |
| 20260502114809 | 13 | 9 | 0.0 | 0.0 | 0.00 | 0.99 | 0.00 | 100 | 1018.0 |
| 20260502113757 | 14 | 352 | 0.0 | 0.0 | 0.00 | 0.99 | 0.00 | 100 | 1017.9 |
| 20260502113251 | 14 | 357 | 0.0 | 0.0 | 0.00 | 0.99 | 0.00 | 100 | 1017.8 |
| 20260502112241 | 14 | 357 | 0.0 | 0.0 | 0.00 | 0.99 | 0.00 | 100 | 1017.6 |
| 20260502111733 | 14 | 17 | 0.0 | 0.0 | 0.00 | 0.99 | 0.00 | 100 | 1017.5 |
| 20260502111227 | 14 | 343 | 0.0 | 0.0 | 0.00 | 0.99 | 0.00 | 100 | 1017.4 |
| 20260502110717 | 14 | 315 | 0.0 | 0.0 | 0.00 | 0.99 | 0.00 | 100 | 1017.3 |
| 20260502110215 | 14 | 338 | 0.0 | 0.0 | 0.00 | 0.99 | 0.00 | 100 | 1017.3 |
| 20260502105705 | 14 | 315 | 0.0 | 0.0 | 0.00 | 0.99 | 0.00 | 100 | 1017.2 |
| 20260502105203 | 14 | 338 | 0.0 | 0.0 | 0.00 | 0.99 | 0.00 | 100 | 1017.2 |
| 20260502104657 | 14 | 332 | 0.0 | 0.0 | 0.00 | 0.99 | 0.00 | 100 | 1017.1 |
| 20260502104151 | 14 | 341 | 0.0 | 0.0 | 0.00 | 0.99 | 0.00 | 100 | 1017.0 |
| 20260502103912 | 14 | 1 | 0.0 | 0.0 | 0.00 | 0.99 | 0.00 | 100 | 1016.9 |
| 20260502103135 | 14 | 307 | 0.0 | 0.0 | 0.00 | 0.99 | 0.00 | 100 | 1016.7 |
| 20260502102634 | 14 | 32 | 0.0 | 0.0 | 0.00 | 0.99 | 0.00 | 100 | 1016.7 |
| 20260502102123 | 14 | 357 | 0.0 | 0.0 | 0.00 | 0.99 | 0.00 | 100 | 1016.7 |
| 20260502101622 | 14 | 342 | 0.0 | 0.0 | 0.00 | 0.99 | 0.00 | 100 | 1016.7 |
| 20260502101116 | 14 | 18 | 0.0 | 0.0 | 0.00 | 0.99 | 0.00 | 100 | 1016.4 |
| 20260502100610 | 14 | 26 | 0.0 | 0.0 | 0.00 | 0.99 | 0.00 | 100 | 1016.3 |
| 20260502091504 | 14 | 1 | 0.0 | 0.0 | 0.00 | 0.99 | 0.00 | 100 | 1016.4 |
| 20260502091004 | 14 | 38 | 0.0 | 0.0 | 0.00 | 0.99 | 0.00 | 100 | 1016.3 |
| 20260502090453 | 14 | 34 | 0.0 | 0.0 | 0.00 | 0.99 | 0.00 | 100 | 1016.2 |
| 20260502071314 | 14 | 14 | 0.0 | 0.0 | 0.00 | 0.99 | 0.00 | 100 | 1015.3 |
| 20260502070814 | 14 | 5 | 0.0 | 0.0 | 0.00 | 0.99 | 0.00 | 100 | 1015.4 |
| 20260502070316 | 14 | 16 | 0.0 | 0.0 | 0.00 | 0.99 | 0.00 | 100 | 1015.6 |
| 20260502065812 | 15 | 343 | 0.0 | 0.0 | 0.00 | 0.99 | 0.00 | 100 | 1015.7 |
| 20260502065312 | 15 | 357 | 0.0 | 0.0 | 0.00 | 0.99 | 0.00 | 100 | 1015.7 |
| 20260502064813 | 15 | 32 | 0.0 | 0.0 | 0.00 | 0.99 | 0.00 | 100 | 1015.8 |
| 20260502064312 | 15 | 342 | 0.0 | 0.0 | 0.00 | 0.99 | 0.00 | 100 | 1015.7 |
| 20260502063813 | 15 | 43 | 0.0 | 0.0 | 0.00 | 0.99 | 0.00 | 100 | 1015.6 |
| 20260502063310 | 15 | 58 | 0.0 | 0.0 | 0.00 | 0.99 | 0.00 | 100 | 1015.6 |
| 20260502063039 | 15 | 25 | 0.0 | 0.0 | 0.00 | 0.99 | 0.00 | 100 | 1015.5 |
| 20260502062307 | 15 | 326 | 0.0 | 0.0 | 0.00 | 0.99 | 0.00 | 100 | 1015.5 |
| 20260502061808 | 14 | 331 | 0.0 | 0.0 | 0.00 | 0.99 | 0.00 | 100 | 1015.5 |
| 20260502061309 | 14 | 1 | 0.0 | 0.0 | 0.00 | 0.99 | 0.00 | 100 | 1015.4 |
| 20260502060807 | 14 | 326 | 0.0 | 0.0 | 0.00 | 0.99 | 0.00 | 100 | 1015.2 |
| 20260502060301 | 14 | 357 | 0.0 | 0.0 | 0.00 | 0.99 | 0.00 | 100 | 1015.2 |
| 20260502055516 | 14 | 10 | 0.0 | 0.0 | 0.00 | 0.99 | 0.00 | 100 | 1015.1 |
| 20260502054737 | 14 | 32 | 0.0 | 0.0 | 0.00 | 0.99 | 0.00 | 100 | 1015.0 |
| 20260502054230 | 14 | 342 | 0.0 | 0.0 | 0.00 | 0.99 | 0.00 | 100 | 1015.0 |
| 20260502053728 | 14 | 342 | 0.0 | 0.0 | 0.00 | 0.99 | 0.00 | 100 | 1015.0 |
| 20260502053222 | 14 | 45 | 0.0 | 0.0 | 0.00 | 0.99 | 0.00 | 100 | 1014.9 |
| 20260502052717 | 14 | 341 | 0.0 | 0.0 | 0.00 | 0.99 | 0.00 | 100 | 1015.0 |
| 20260502052212 | 14 | 24 | 0.0 | 0.0 | 0.00 | 0.99 | 0.00 | 100 | 1014.9 |
| 20260502051700 | 14 | 32 | 0.0 | 0.0 | 0.00 | 0.99 | 0.00 | 100 | 1014.8 |
| 20260502051154 | 14 | 26 | 0.0 | 0.0 | 0.00 | 0.99 | 0.00 | 100 | 1014.7 |
| 20260502050653 | 14 | 5 | 0.0 | 0.0 | 0.00 | 0.99 | 0.00 | 100 | 1014.7 |
| 20260502050149 | 15 | 59 | 0.0 | 0.0 | 0.00 | 0.99 | 0.00 | 100 | 1014.6 |
| 20260502045648 | 15 | 352 | 0.0 | 0.0 | 0.00 | 0.99 | 1.04 | 100 | 1014.6 |
| 20260502045149 | 15 | 3 | 0.0 | 0.0 | 0.00 | 0.99 | 1.04 | 100 | 1014.6 |
| 20260502044648 | 15 | 22 | 0.0 | 0.0 | 0.00 | 0.99 | 1.04 | 100 | 1014.5 |
| 20260502044418 | 15 | 352 | 0.0 | 0.0 | 0.00 | 0.99 | 1.04 | 100 | 1014.3 |
| 20260502043649 | 15 | 303 | 0.0 | 0.0 | 0.00 | 0.99 | 1.04 | 100 | 1014.2 |
| 20260502043419 | 15 | 342 | 0.0 | 0.0 | 0.00 | 0.99 | 1.04 | 100 | 1014.2 |
| 20260502042648 | 15 | 2 | 0.0 | 0.0 | 0.00 | 0.99 | 1.04 | 100 | 1014.3 |
| 20260502042148 | 15 | 25 | 0.0 | 0.0 | 0.00 | 0.99 | 1.04 | 100 | 1014.2 |
| 20260502041648 | 15 | 4 | 0.0 | 0.0 | 0.00 | 0.99 | 1.04 | 100 | 1014.1 |
| 20260502041418 | 15 | 1 | 0.0 | 0.0 | 0.00 | 0.99 | 1.04 | 100 | 1014.1 |
| 20260502040649 | 15 | 315 | 0.0 | 0.0 | 0.00 | 0.99 | 1.04 | 100 | 1014.0 |
| 20260502040149 | 15 | 332 | 0.0 | 0.0 | 0.00 | 0.99 | 1.04 | 100 | 1013.9 |
| 20260502035648 | 15 | 325 | 0.0 | 0.0 | 0.00 | 0.99 | 1.04 | 100 | 1013.9 |
| 20260502035148 | 15 | 29 | 0.0 | 0.0 | 0.00 | 0.99 | 1.04 | 100 | 1013.9 |
| 20260502034648 | 15 | 4 | 0.0 | 0.0 | 0.00 | 0.99 | 1.04 | 100 | 1013.9 |
| 20260502034148 | 15 | 4 | 0.0 | 0.0 | 0.00 | 0.99 | 1.04 | 100 | 1013.9 |
| 20260502033648 | 16 | 352 | 0.0 | 0.0 | 0.00 | 0.99 | 1.04 | 100 | 1013.8 |
| 20260502033148 | 16 | 337 | 0.0 | 0.0 | 0.00 | 0.99 | 1.04 | 100 | 1013.8 |
| 20260502032648 | 16 | 357 | 0.0 | 0.0 | 0.00 | 0.99 | 1.04 | 100 | 1013.8 |
| 20260502032148 | 16 | 352 | 0.0 | 0.0 | 0.00 | 0.99 | 1.04 | 100 | 1013.7 |
| 20260502031649 | 16 | 13 | 0.0 | 0.0 | 0.00 | 0.99 | 1.04 | 100 | 1013.6 |
| 20260502031148 | 16 | 352 | 0.0 | 0.0 | 0.00 | 0.99 | 1.04 | 100 | 1013.6 |
| 20260502030648 | 16 | 60 | 0.0 | 0.0 | 0.00 | 0.99 | 1.04 | 100 | 1013.4 |
| 20260502030148 | 16 | 34 | 0.0 | 0.0 | 0.00 | 0.99 | 1.04 | 100 | 1013.3 |
| 20260502025648 | 16 | 1 | 0.0 | 0.0 | 0.00 | 0.99 | 1.04 | 100 | 1013.2 |
| 20260502024633 | 16 | 337 | 0.0 | 0.0 | 0.00 | 0.99 | 1.04 | 100 | 1012.9 |
| 20260502024122 | 16 | 314 | 0.0 | 0.0 | 0.00 | 0.99 | 1.04 | 100 | 1012.7 |
| 20260502023616 | 16 | 22 | 0.0 | 0.0 | 0.00 | 0.99 | 1.04 | 100 | 1012.8 |
| 20260502023111 | 16 | 32 | 0.0 | 0.0 | 0.00 | 0.99 | 1.04 | 100 | 1012.8 |
| 20260502022558 | 16 | 14 | 0.0 | 0.0 | 0.00 | 0.99 | 1.04 | 100 | 1012.6 |
| 20260502022059 | 16 | 1 | 0.0 | 0.0 | 0.00 | 0.99 | 1.04 | 100 | 1012.5 |
| 20260502021552 | 16 | 337 | 0.0 | 0.0 | 0.00 | 0.99 | 1.04 | 100 | 1012.4 |
| 20260502021047 | 16 | 3 | 0.0 | 0.0 | 0.00 | 0.99 | 1.04 | 100 | 1012.4 |
| 20260502020536 | 16 | 45 | 0.0 | 0.0 | 0.00 | 0.99 | 1.04 | 100 | 1012.1 |
| 20260502020305 | 16 | 53 | 0.0 | 0.0 | 0.00 | 0.99 | 1.04 | 100 | 1012.0 |
| 20260502015528 | 16 | 352 | 0.0 | 0.0 | 0.00 | 0.99 | 1.04 | 100 | 1011.9 |
| 20260502015017 | 16 | 338 | 0.0 | 0.0 | 0.00 | 0.99 | 1.04 | 100 | 1011.9 |
| 20260502014510 | 16 | 340 | 0.0 | 0.0 | 0.00 | 0.99 | 1.04 | 100 | 1011.9 |
| 20260502014010 | 16 | 332 | 0.0 | 0.0 | 0.00 | 0.99 | 1.04 | 100 | 1011.7 |
| 20260502013505 | 16 | 48 | 0.0 | 0.0 | 0.00 | 0.99 | 1.04 | 100 | 1011.4 |
| 20260502012450 | 16 | 324 | 0.0 | 0.0 | 0.00 | 0.99 | 1.04 | 100 | 1011.4 |
| 20260502011947 | 16 | 59 | 0.0 | 0.0 | 0.03 | 0.99 | 1.04 | 100 | 1011.5 |
| 20260502011447 | 16 | 17 | 0.0 | 0.0 | 0.03 | 0.99 | 1.04 | 100 | 1011.4 |
| 20260502010947 | 16 | 38 | 0.0 | 0.0 | 0.05 | 0.99 | 1.04 | 100 | 1011.2 |
| 20260502005948 | 16 | 352 | 0.0 | 0.0 | 0.05 | 0.99 | 1.04 | 100 | 1010.9 |
| 20260502005718 | 16 | 328 | 0.0 | 0.0 | 0.08 | 0.99 | 1.04 | 100 | 1010.8 |
| 20260502004947 | 16 | 341 | 0.0 | 0.0 | 0.08 | 0.99 | 1.04 | 100 | 1010.8 |
| 20260502004448 | 16 | 343 | 0.0 | 0.0 | 0.08 | 0.99 | 1.04 | 100 | 1010.8 |
| 20260502003947 | 16 | 323 | 0.0 | 0.0 | 0.10 | 0.99 | 1.04 | 100 | 1011.2 |
| 20260502003448 | 16 | 33 | 0.0 | 0.0 | 0.10 | 0.99 | 1.04 | 100 | 1011.0 |
| 20260502003215 | 16 | 330 | 0.0 | 0.0 | 0.10 | 0.99 | 1.04 | 100 | 1011.2 |
| 20260502002444 | 16 | 352 | 0.0 | 0.0 | 0.13 | 0.99 | 1.04 | 100 | 1011.0 |
| 20260502001944 | 16 | 47 | 0.0 | 0.0 | 0.15 | 0.97 | 1.02 | 100 | 1010.8 |
| 20260502001438 | 16 | 326 | 0.0 | 0.0 | 0.25 | 0.97 | 1.02 | 100 | 1010.6 |
| 20260502000932 | 16 | 321 | 0.0 | 0.0 | 0.38 | 0.94 | 0.99 | 100 | 1010.5 |
| 20260502000431 | 16 | 335 | 0.0 | 0.0 | 0.66 | 0.94 | 0.99 | 100 | 1010.5 |
| 20260501235925 | 16 | 2 | 0.0 | 0.0 | 0.66 | 0.94 | 0.99 | 100 | 1010.5 |
| 20260501235418 | 16 | 343 | 0.0 | 0.0 | 0.64 | 0.91 | 0.97 | 100 | 1010.3 |
| 20260501234912 | 16 | 311 | 0.0 | 0.0 | 0.64 | 0.91 | 0.97 | 100 | 1010.4 |
| 20260501234400 | 16 | 343 | 0.0 | 0.0 | 0.64 | 0.91 | 0.97 | 100 | 1010.2 |
| 20260501233856 | 17 | 332 | 0.0 | 0.0 | 0.61 | 0.89 | 0.94 | 100 | 1009.9 |
| 20260501233355 | 17 | 352 | 0.0 | 0.0 | 0.61 | 0.89 | 0.94 | 100 | 1009.6 |
| 20260501232848 | 17 | 14 | 0.0 | 0.0 | 0.61 | 0.89 | 0.94 | 100 | 1010.0 |
| 20260501232342 | 17 | 325 | 0.0 | 0.0 | 0.56 | 0.84 | 0.89 | 100 | 1010.0 |
| 20260501231832 | 17 | 325 | 0.0 | 0.0 | 0.51 | 0.79 | 0.84 | 100 | 1009.6 |
| 20260501231331 | 17 | 14 | 0.0 | 0.0 | 0.41 | 0.69 | 0.76 | 100 | 1009.0 |
| 20260501230820 | 17 | 338 | 0.0 | 0.0 | 0.18 | 0.46 | 0.51 | 100 | 1009.9 |
| 20260501230318 | 17 | 323 | 0.0 | 0.0 | 0.00 | 0.28 | 0.33 | 100 | 1009.9 |
| 20260501225812 | 17 | 302 | 0.0 | 0.0 | 0.00 | 0.28 | 0.33 | 100 | 1008.8 |
| 20260501225537 | 17 | 72 | 0.0 | 0.0 | 0.03 | 0.28 | 0.33 | 100 | 1007.3 |
| 20260501225031 | 17 | 34 | 0.0 | 0.0 | 0.03 | 0.28 | 0.33 | 100 | 1007.7 |
| 20260501224250 | 17 | 258 | 0.0 | 0.0 | 0.03 | 0.28 | 0.33 | 100 | 1006.9 |
| 20260501223749 | 17 | 9 | 0.0 | 0.0 | 0.03 | 0.28 | 0.33 | 100 | 1007.0 |
| 20260501223243 | 17 | 49 | 0.0 | 0.0 | 0.03 | 0.28 | 0.33 | 100 | 1007.0 |
| 20260501222732 | 17 | 49 | 0.0 | 0.0 | 0.08 | 0.28 | 0.33 | 100 | 1007.4 |
| 20260501222227 | 17 | 32 | 0.0 | 0.0 | 0.08 | 0.28 | 0.33 | 100 | 1007.8 |
| 20260501221955 | 17 | 76 | 0.0 | 0.0 | 0.18 | 0.28 | 0.33 | 100 | 1007.6 |
| 20260501221218 | 17 | 340 | 0.0 | 0.0 | 0.28 | 0.28 | 0.33 | 100 | 1007.8 |
| 20260501220945 | 17 | 343 | 0.0 | 0.0 | 0.28 | 0.28 | 0.33 | 100 | 1008.0 |
| 20260501215700 | 17 | 17 | 0.0 | 0.0 | 0.28 | 0.28 | 0.33 | 100 | 1008.0 |
| 20260501215149 | 17 | 3 | 0.0 | 0.0 | 0.25 | 0.25 | 0.30 | 100 | 1008.2 |
| 20260501214644 | 17 | 55 | 0.0 | 3.2 | 0.25 | 0.25 | 0.30 | 100 | 1008.3 |
| 20260501214143 | 17 | 24 | 0.0 | 3.2 | 0.25 | 0.25 | 0.30 | 100 | 1008.1 |
| 20260501213913 | 18 | 352 | 0.0 | 1.6 | 0.25 | 0.25 | 0.30 | 100 | 1008.2 |
| 20260501213142 | 18 | 22 | 0.0 | 1.6 | 0.25 | 0.25 | 0.30 | 100 | 1008.5 |
| 20260501212642 | 18 | 2 | 0.0 | 0.0 | 0.20 | 0.20 | 0.25 | 100 | 1008.5 |
| 20260501212140 | 18 | 3 | 0.0 | 1.6 | 0.18 | 0.18 | 0.25 | 100 | 1008.4 |
| 20260501211639 | 18 | 2 | 0.0 | 1.6 | 0.05 | 0.05 | 0.13 | 100 | 1008.5 |
| 20260501211139 | 18 | 319 | 0.0 | 1.6 | 0.00 | 0.00 | 0.05 | 100 | 1008.4 |
| 20260501210638 | 18 | 30 | 0.0 | 1.6 | 0.00 | 0.00 | 0.05 | 100 | 1008.4 |
| 20260501210138 | 18 | 53 | 0.0 | 1.6 | 0.00 | 0.00 | 0.05 | 100 | 1008.5 |
| 20260501205638 | 18 | 30 | 0.0 | 1.6 | 0.00 | 0.00 | 0.05 | 100 | 1008.4 |
| 20260501205136 | 18 | 14 | 0.0 | 1.6 | 0.00 | 0.00 | 0.05 | 100 | 1008.2 |
| 20260501204635 | 18 | 93 | 0.0 | 1.6 | 0.00 | 0.00 | 0.05 | 100 | 1008.3 |
| 20260501204136 | 18 | 58 | 0.0 | 4.8 | 0.00 | 0.00 | 0.05 | 100 | 1008.2 |
| 20260501203635 | 18 | 36 | 0.0 | 4.8 | 0.00 | 0.00 | 0.05 | 100 | 1008.4 |
| 20260501203137 | 18 | 352 | 0.0 | 6.4 | 0.00 | 0.00 | 0.05 | 100 | 1008.4 |
| 20260501202635 | 18 | 336 | 1.6 | 6.4 | 0.00 | 0.00 | 0.05 | 100 | 1008.5 |
| 20260501202136 | 18 | 323 | 3.2 | 1.6 | 0.00 | 0.00 | 0.05 | 100 | 1008.8 |
| 20260501193913 | 18 | 331 | 16.1 | 0.0 | 0.00 | 0.00 | 0.05 | 100 | 1005.7 |
| 20260501193632 | 18 | 299 | 16.1 | 38.6 | 0.28 | 0.30 | 0.33 | 100 | 1008.4 |
| 20260501193122 | 18 | 357 | 16.1 | 35.4 | 0.00 | 0.03 | 0.05 | 100 | 1005.7 |
| 20260501192851 | 18 | 330 | 16.1 | 37.0 | 0.00 | 0.03 | 0.05 | 100 | 1005.4 |
| 20260501192109 | 18 | 53 | 16.1 | 37.0 | 0.00 | 0.03 | 0.05 | 100 | 1003.3 |
| 20260501191608 | 18 | 77 | 12.9 | 29.0 | 0.00 | 0.03 | 0.05 | 100 | 1004.3 |
| 20260501191103 | 18 | 36 | 9.7 | 32.2 | 0.00 | 0.03 | 0.05 | 100 | 1005.8 |
| 20260501190556 | 18 | 54 | 9.7 | 32.2 | 0.03 | 0.03 | 0.05 | 100 | 1006.4 |
| 20260501190045 | 18 | 137 | 8.0 | 20.9 | 0.03 | 0.03 | 0.05 | 100 | 1006.0 |
| 20260501185540 | 18 | 58 | 8.0 | 19.3 | 0.03 | 0.03 | 0.05 | 100 | 1007.0 |
| 20260501185034 | 18 | 73 | 8.0 | 20.9 | 0.03 | 0.03 | 0.05 | 100 | 1006.6 |
| 20260501184532 | 18 | 64 | 8.0 | 20.9 | 0.03 | 0.03 | 0.05 | 100 | 1007.0 |
| 20260501184028 | 18 | 24 | 8.0 | 20.9 | 0.03 | 0.03 | 0.05 | 100 | 1007.6 |
| 20260501183524 | 18 | 34 | 8.0 | 24.1 | 0.03 | 0.03 | 0.05 | 100 | 1007.7 |
| 20260501183255 | 18 | 90 | 6.4 | 24.1 | 0.03 | 0.03 | 0.05 | 100 | 1007.6 |
| 20260501182526 | 18 | 20 | 8.0 | 24.1 | 0.03 | 0.03 | 0.05 | 100 | 1008.1 |
| 20260501182023 | 18 | 24 | 9.7 | 25.7 | 0.03 | 0.03 | 0.05 | 100 | 1008.4 |
| 20260501181524 | 18 | 11 | 9.7 | 25.7 | 0.03 | 0.03 | 0.05 | 100 | 1008.5 |
| 20260501181023 | 18 | 33 | 8.0 | 20.9 | 0.03 | 0.03 | 0.05 | 100 | 1008.5 |
| 20260501180522 | 18 | 71 | 8.0 | 17.7 | 0.00 | 0.00 | 0.05 | 100 | 1008.6 |
| 20260501180253 | 18 | 55 | 8.0 | 19.3 | 0.00 | 0.00 | 0.03 | 100 | 1008.5 |
| 20260501175521 | 18 | 8 | 8.0 | 20.9 | 0.00 | 0.00 | 0.03 | 100 | 1008.4 |
| 20260501175021 | 18 | 15 | 8.0 | 20.9 | 0.00 | 0.00 | 0.03 | 100 | 1008.2 |
| 20260501174521 | 18 | 65 | 9.7 | 24.1 | 0.00 | 0.00 | 0.03 | 100 | 1008.2 |
| 20260501174023 | 18 | 25 | 9.7 | 24.1 | 0.00 | 0.00 | 0.03 | 100 | 1008.0 |
| 20260501173753 | 18 | 39 | 8.0 | 22.5 | 0.00 | 0.00 | 0.03 | 100 | 1007.9 |
| 20260501173023 | 18 | 44 | 8.0 | 24.1 | 0.00 | 0.00 | 0.03 | 100 | 1008.0 |
| 20260501172522 | 18 | 63 | 6.4 | 24.1 | 0.00 | 0.00 | 0.03 | 100 | 1008.2 |
| 20260501172020 | 18 | 72 | 8.0 | 22.5 | 0.00 | 0.00 | 0.03 | 100 | 1008.4 |
| 20260501171520 | 18 | 63 | 8.0 | 22.5 | 0.00 | 0.00 | 0.03 | 100 | 1008.6 |
| 20260501171250 | 18 | 40 | 8.0 | 20.9 | 0.00 | 0.00 | 0.03 | 100 | 1008.6 |
| 20260501170519 | 18 | 57 | 8.0 | 35.4 | 0.00 | 0.00 | 0.03 | 100 | 1008.9 |
| 20260501170020 | 18 | 52 | 8.0 | 35.4 | 0.00 | 0.00 | 0.03 | 100 | 1009.0 |
| 20260501165518 | 18 | 30 | 8.0 | 19.3 | 0.00 | 0.00 | 0.03 | 100 | 1009.4 |
| 20260501165022 | 18 | 38 | 6.4 | 16.1 | 0.00 | 0.00 | 0.03 | 100 | 1009.3 |
| 20260501164517 | 18 | 16 | 8.0 | 14.5 | 0.00 | 0.00 | 0.03 | 100 | 1009.5 |
| 20260501164019 | 18 | 45 | 9.7 | 6.4 | 0.00 | 0.00 | 0.03 | 100 | 1009.5 |
| 20260501161152 | 19 | 14 | 9.7 | 19.3 | 0.00 | 0.00 | 0.00 | 100 | 1010.2 |
| 20260501160640 | 20 | 357 | 12.9 | 29.0 | 0.00 | 0.00 | 0.00 | 100 | 1010.1 |
| 20260501160133 | 20 | 352 | 14.5 | 29.0 | 0.00 | 0.00 | 0.00 | 100 | 1010.3 |
| 20260501155633 | 20 | 314 | 17.7 | 35.4 | 0.00 | 0.00 | 0.00 | 100 | 1010.3 |
| 20260501155134 | 21 | 328 | 14.5 | 35.4 | 0.00 | 0.00 | 0.00 | 100 | 1010.4 |
| 20260501154132 | 21 | 19 | 9.7 | 17.7 | 0.00 | 0.00 | 0.00 | 100 | 1010.0 |
| 20260501153633 | 21 | 51 | 6.4 | 17.7 | 0.00 | 0.00 | 0.00 | 100 | 1009.7 |
| 20260501153134 | 21 | 31 | 4.8 | 17.7 | 0.00 | 0.00 | 0.00 | 100 | 1009.4 |
| 20260501152633 | 21 | 73 | 6.4 | 17.7 | 0.00 | 0.00 | 0.00 | 100 | 1009.2 |
| 20260501152133 | 21 | 21 | 6.4 | 19.3 | 0.00 | 0.00 | 0.00 | 100 | 1009.1 |
| 20260501151634 | 21 | 43 | 6.4 | 19.3 | 0.00 | 0.00 | 0.00 | 100 | 1008.8 |
| 20260501151133 | 21 | 55 | 6.4 | 17.7 | 0.00 | 0.00 | 0.00 | 100 | 1008.8 |
| 20260501150632 | 21 | 55 | 6.4 | 17.7 | 0.00 | 0.00 | 0.00 | 100 | 1008.9 |
| 20260501150132 | 21 | 343 | 8.0 | 20.9 | 0.00 | 0.00 | 0.00 | 100 | 1009.1 |
| 20260501145633 | 20 | 69 | 8.0 | 20.9 | 0.00 | 0.00 | 0.00 | 100 | 1009.0 |
| 20260501144633 | 20 | 61 | 6.4 | 22.5 | 0.00 | 0.00 | 0.00 | 100 | 1008.9 |
| 20260501144133 | 20 | 79 | 8.0 | 29.0 | 0.00 | 0.00 | 0.00 | 100 | 1009.0 |
| 20260501143632 | 20 | 90 | 11.3 | 30.6 | 0.00 | 0.00 | 0.00 | 100 | 1008.9 |